Terminal Aerodrome Forecast
Issued by NWS Charleston, WV

Current Version | Previous Version | Graphics & Text | Print | Product List | Glossary On
Versions: 1 2 3 4 5 6 7 8 9 10 11 12 13 14 15 16 17 18 19 20 21 22 23 24 25
000
FTUS41 KRLX 201500 AAA
TAFCRW
TAF AMD
KCRW 201500Z 2015/2112 00000KT P6SM BKN013
     FM201600 19005KT P6SM SCT040
     FM210200 00000KT 6SM BR BKN100
     FM210400 00000KT 3SM BR BKN090
     FM211000 00000KT 1SM BR BKN001
     FM211100 00000KT 1/2SM FG VV001=

USA.gov is the U.S. government's official web portal to all federal, state and local government web resources and services.